| time (UTC) | temp F | wind direction | speed knots | gust knots | rain 1hr in | rain 24hr in | rain mn in | humidity % | barometer mb |
| 20260905020111 | 75 | 0 | 0.0 | 0.0 | 0.00 | 0.00 | 0.00 | 28 | 1021.9 |
| 20260905014616 | 76 | 0 | 0.0 | 0.9 | 0.00 | 0.00 | 0.00 | 27 | 1021.7 |
| 20260905013104 | 77 | 0 | 0.9 | 6.1 | 0.00 | 0.00 | 0.00 | 26 | 1021.5 |
| 20260905011621 | 78 | 0 | 0.0 | 6.1 | 0.00 | 0.00 | 0.00 | 25 | 1021.4 |
| 20260905010104 | 79 | 83 | 2.6 | 8.7 | 0.00 | 0.00 | 0.00 | 24 | 1021.3 |
| 20260905004607 | 80 | 91 | 3.5 | 7.8 | 0.00 | 0.00 | 0.00 | 23 | 1021.3 |
| 20260905003105 | 80 | 24 | 0.9 | 10.4 | 0.00 | 0.00 | 0.00 | 22 | 1021.3 |
| 20260905001609 | 81 | 30 | 0.9 | 4.3 | 0.00 | 0.00 | 0.00 | 19 | 1021.0 |
| 20260905000114 | 81 | 54 | 1.7 | 5.2 | 0.00 | 0.00 | 0.00 | 19 | 1021.1 |
| 20260904234612 | 81 | 50 | 0.9 | 7.0 | 0.00 | 0.00 | 0.00 | 19 | 1021.2 |
| 20260904233102 | 82 | 111 | 1.7 | 9.6 | 0.00 | 0.00 | 0.00 | 19 | 1021.2 |
| 20260904231603 | 82 | 101 | 3.5 | 7.0 | 0.00 | 0.00 | 0.00 | 19 | 1021.0 |
| 20260904230109 | 82 | 32 | 2.6 | 8.7 | 0.00 | 0.00 | 0.00 | 19 | 1020.8 |
| 20260904224616 | 83 | 63 | 1.7 | 7.8 | 0.00 | 0.00 | 0.00 | 19 | 1020.8 |
| 20260904223106 | 81 | 8 | 1.7 | 9.6 | 0.00 | 0.00 | 0.00 | 19 | 1020.8 |
| 20260904221608 | 82 | 359 | 1.7 | 6.1 | 0.00 | 0.00 | 0.00 | 19 | 1020.6 |
| 20260904220110 | 81 | 20 | 2.6 | 10.4 | 0.00 | 0.00 | 0.00 | 20 | 1020.8 |
| 20260904214607 | 83 | 53 | 2.6 | 9.6 | 0.00 | 0.00 | 0.00 | 19 | 1020.6 |
| 20260904213104 | 84 | 7 | 2.6 | 9.6 | 0.00 | 0.00 | 0.00 | 18 | 1020.6 |
| 20260904211604 | 84 | 33 | 3.5 | 13.9 | 0.00 | 0.00 | 0.00 | 18 | 1020.6 |
| 20260904210107 | 84 | 36 | 2.6 | 10.4 | 0.00 | 0.00 | 0.00 | 18 | 1020.7 |
| 20260904204608 | 84 | 83 | 5.2 | 11.3 | 0.00 | 0.00 | 0.00 | 18 | 1020.9 |
| 20260904203105 | 82 | 68 | 0.9 | 10.4 | 0.00 | 0.00 | 0.00 | 19 | 1021.2 |
| 20260904201636 | 81 | 56 | 4.3 | 9.6 | 0.00 | 0.00 | 0.00 | 19 | 1021.3 |
| 20260904200122 | 81 | 56 | 3.5 | 11.3 | 0.00 | 0.00 | 0.00 | 19 | 1021.5 |
| 20260904194613 | 82 | 117 | 3.5 | 13.9 | 0.00 | 0.00 | 0.00 | 19 | 1021.6 |
| 20260904193111 | 81 | 76 | 7.8 | 13.0 | 0.00 | 0.00 | 0.00 | 19 | 1021.7 |
| 20260904191603 | 82 | 160 | 4.3 | 12.2 | 0.00 | 0.00 | 0.00 | 19 | 1021.7 |
| 20260904190117 | 82 | 105 | 4.3 | 12.2 | 0.00 | 0.00 | 0.00 | 19 | 1021.8 |
| 20260904184605 | 82 | 24 | 2.6 | 12.2 | 0.00 | 0.00 | 0.00 | 20 | 1021.9 |
| 20260904183104 | 83 | 61 | 6.1 | 12.2 | 0.00 | 0.00 | 0.00 | 20 | 1022.1 |
| 20260904181607 | 83 | 103 | 1.7 | 7.8 | 0.00 | 0.00 | 0.00 | 20 | 1022.1 |
| 20260904180108 | 85 | 193 | 2.6 | 8.7 | 0.00 | 0.00 | 0.00 | 17 | 1022.3 |
| 20260904174608 | 82 | 94 | 1.7 | 7.8 | 0.00 | 0.00 | 0.00 | 18 | 1022.4 |
| 20260904173130 | 83 | 271 | 3.5 | 11.3 | 0.00 | 0.00 | 0.00 | 18 | 1022.4 |
| 20260904171611 | 82 | 285 | 2.6 | 6.1 | 0.00 | 0.00 | 0.00 | 19 | 1022.4 |
| 20260904170125 | 82 | 274 | 0.9 | 11.3 | 0.00 | 0.00 | 0.00 | 19 | 1022.2 |
| 20260904164609 | 81 | 265 | 2.6 | 10.4 | 0.00 | 0.00 | 0.00 | 19 | 1022.4 |
| 20260904163108 | 81 | 229 | 2.6 | 10.4 | 0.00 | 0.00 | 0.00 | 20 | 1022.1 |
| 20260904161606 | 80 | 240 | 4.3 | 14.8 | 0.00 | 0.00 | 0.00 | 20 | 1022.3 |
| 20260904160109 | 80 | 217 | 2.6 | 7.0 | 0.00 | 0.00 | 0.00 | 20 | 1022.2 |
| 20260904154606 | 80 | 304 | 1.7 | 10.4 | 0.00 | 0.00 | 0.00 | 20 | 1022.2 |
| 20260904153103 | 79 | 264 | 1.7 | 8.7 | 0.00 | 0.00 | 0.00 | 21 | 1022.1 |
| 20260904151616 | 79 | 235 | 0.9 | 7.0 | 0.00 | 0.00 | 0.00 | 22 | 1021.9 |
| 20260904150130 | 78 | 297 | 0.9 | 6.1 | 0.00 | 0.00 | 0.00 | 23 | 1021.9 |
| 20260904144605 | 76 | 236 | 4.3 | 11.3 | 0.00 | 0.00 | 0.00 | 23 | 1021.9 |
| 20260904143113 | 76 | 223 | 2.6 | 6.1 | 0.00 | 0.00 | 0.00 | 23 | 1021.8 |
| 20260904141617 | 75 | 229 | 0.9 | 7.0 | 0.00 | 0.00 | 0.00 | 24 | 1021.7 |
| 20260904140109 | 74 | 0 | 0.9 | 4.3 | 0.00 | 0.00 | 0.00 | 24 | 1021.5 |
| 20260904134625 | 72 | 255 | 0.9 | 7.8 | 0.00 | 0.00 | 0.00 | 25 | 1021.4 |
| 20260904133106 | 71 | 257 | 0.9 | 7.0 | 0.00 | 0.00 | 0.00 | 26 | 1021.0 |
| 20260904131605 | 68 | 310 | 0.9 | 3.5 | 0.00 | 0.00 | 0.00 | 27 | 1020.9 |
| 20260904130109 | 66 | 0 | 0.0 | 5.2 | 0.00 | 0.00 | 0.00 | 30 | 1020.7 |
| 20260904124604 | 63 | 281 | 0.0 | 2.6 | 0.00 | 0.00 | 0.00 | 32 | 1020.6 |
| 20260904123108 | 62 | 269 | 0.9 | 2.6 | 0.00 | 0.00 | 0.00 | 33 | 1020.6 |
| 20260904121602 | 63 | 0 | 1.7 | 3.5 | 0.00 | 0.00 | 0.00 | 32 | 1020.4 |
| 20260904120109 | 63 | 284 | 0.0 | 1.7 | 0.00 | 0.00 | 0.00 | 31 | 1020.2 |
| 20260904114605 | 63 | 222 | 0.0 | 3.5 | 0.00 | 0.00 | 0.00 | 31 | 1020.2 |
| 20260904113106 | 62 | 0 | 0.0 | 1.7 | 0.00 | 0.00 | 0.00 | 32 | 1020.2 |
| 20260904111607 | 63 | 0 | 0.9 | 3.5 | 0.00 | 0.00 | 0.00 | 31 | 1020.2 |
| 20260904110116 | 63 | 0 | 0.0 | 3.5 | 0.00 | 0.00 | 0.00 | 30 | 1020.2 |
| 20260904104608 | 63 | 223 | 0.9 | 4.3 | 0.00 | 0.00 | 0.00 | 30 | 1020.0 |
| 20260904103113 | 64 | 260 | 0.0 | 4.3 | 0.00 | 0.00 | 0.00 | 30 | 1019.9 |
| 20260904101603 | 65 | 236 | 0.0 | 2.6 | 0.00 | 0.00 | 0.00 | 29 | 1019.8 |
| 20260904100108 | 67 | 228 | 0.0 | 0.9 | 0.00 | 0.00 | 0.00 | 27 | 1019.7 |
| 20260904094607 | 68 | 0 | 0.0 | 5.2 | 0.00 | 0.00 | 0.00 | 26 | 1019.6 |
| 20260904093112 | 68 | 205 | 1.7 | 5.2 | 0.00 | 0.00 | 0.00 | 26 | 1019.5 |
| 20260904091601 | 67 | 210 | 1.7 | 5.2 | 0.00 | 0.00 | 0.00 | 26 | 1019.4 |
| 20260904090107 | 66 | 224 | 0.9 | 2.6 | 0.00 | 0.00 | 0.00 | 28 | 1019.5 |
| 20260904084604 | 65 | 0 | 0.0 | 0.9 | 0.00 | 0.00 | 0.00 | 29 | 1019.6 |
| 20260904083105 | 65 | 225 | 0.9 | 3.5 | 0.00 | 0.00 | 0.00 | 30 | 1019.7 |
| 20260904081612 | 65 | 257 | 0.0 | 2.6 | 0.00 | 0.00 | 0.00 | 30 | 1019.8 |
| 20260904080105 | 63 | 220 | 0.0 | 3.5 | 0.00 | 0.00 | 0.00 | 33 | 1019.7 |
| 20260904074606 | 64 | 213 | 0.9 | 4.3 | 0.00 | 0.00 | 0.00 | 33 | 1019.8 |
| 20260904073103 | 65 | 0 | 0.0 | 5.2 | 0.00 | 0.00 | 0.00 | 33 | 1019.9 |
| 20260904071608 | 66 | 0 | 0.0 | 4.3 | 0.00 | 0.00 | 0.00 | 33 | 1019.9 |
| 20260904070114 | 66 | 0 | 0.0 | 0.9 | 0.00 | 0.00 | 0.00 | 33 | 1019.8 |
| 20260904064606 | 65 | 203 | 0.0 | 0.9 | 0.00 | 0.00 | 0.00 | 34 | 1019.9 |
| 20260904063123 | 66 | 294 | 1.7 | 4.3 | 0.00 | 0.00 | 0.00 | 33 | 1020.0 |
| 20260904061608 | 67 | 0 | 0.0 | 2.6 | 0.00 | 0.00 | 0.00 | 32 | 1019.7 |
| 20260904060106 | 67 | 248 | 0.0 | 2.6 | 0.00 | 0.00 | 0.00 | 32 | 1019.7 |
| 20260904054612 | 68 | 226 | 1.7 | 2.6 | 0.00 | 0.00 | 0.00 | 31 | 1019.6 |
| 20260904053104 | 69 | 241 | 0.0 | 3.5 | 0.00 | 0.00 | 0.00 | 31 | 1019.7 |
| 20260904051610 | 69 | 0 | 0.0 | 5.2 | 0.00 | 0.00 | 0.00 | 31 | 1019.6 |
| 20260904050108 | 70 | 205 | 2.6 | 6.1 | 0.00 | 0.00 | 0.00 | 30 | 1019.8 |
| 20260904044608 | 70 | 192 | 3.5 | 7.8 | 0.00 | 0.00 | 0.00 | 31 | 1019.9 |
| 20260904043103 | 70 | 220 | 2.6 | 7.8 | 0.00 | 0.00 | 0.00 | 31 | 1020.0 |
| 20260904041604 | 70 | 214 | 2.6 | 7.0 | 0.00 | 0.00 | 0.00 | 31 | 1020.2 |
| 20260904040110 | 70 | 0 | 1.7 | 6.1 | 0.00 | 0.00 | 0.00 | 31 | 1020.2 |
| 20260904034608 | 70 | 192 | 2.6 | 6.1 | 0.00 | 0.00 | 0.00 | 31 | 1020.3 |
| 20260904033102 | 70 | 216 | 1.7 | 5.2 | 0.00 | 0.00 | 0.00 | 31 | 1020.4 |
| 20260904031612 | 70 | 0 | 0.0 | 3.5 | 0.00 | 0.00 | 0.00 | 32 | 1020.5 |
| 20260904030110 | 70 | 0 | 0.0 | 3.5 | 0.00 | 0.00 | 0.00 | 31 | 1020.6 |
| 20260904024606 | 70 | 219 | 0.0 | 2.6 | 0.00 | 0.00 | 0.00 | 31 | 1020.6 |
| 20260904023104 | 71 | 231 | 0.0 | 0.9 | 0.00 | 0.00 | 0.00 | 30 | 1020.3 |
| 20260904021609 | 72 | 0 | 0.0 | 0.0 | 0.00 | 0.00 | 0.00 | 30 | 1020.1 |